Location: Petržalka
(48.1109°N, 17.1116°E)
Time: 08:37:39
(UTC+01:00)

OTV 5 (USA 277) - Pass Details

Date: 29 October 2019
Orbit: 310 x 324 km, 54.5° (Epoch: 17 October)

Event Time Altitude Azimuth Distance (km) Brightness Sun altitude
Rises 18:18:36 0° 217° (SW) 2,051 ? -17.2°
Reaches altitude 10° 18:20:38 10° 208° (SSW) 1,227 ? -17.6°
Enters shadow 18:22:16 26° 180° (S) 679 ? -17.8°
